,,,PA_Meas_PMT16A,,PR_Meas_QMR101_102,,RH_Meas_QMH101,,SR_Meas_QMS101,,TA_Meas_QMH101,,GenWind,,GenWind,
date,time,status,PA,status,PR,status,RH,status,SR,status,TA,status,DirAvg,status,SpdAvg,
2012-08-14, 00:00:04,VALID,1001.38,VALID,0,VALID,57.5121,VALID,0,VALID,26.4537,VALID,163,VALID,3.97148,
2012-08-14, 00:01:04,VALID,1001.4,VALID,0,VALID,57.6494,VALID,0,VALID,26.4341,VALID,172,VALID,2.79961,
2012-08-14, 00:02:04,VALID,1001.37,VALID,0,VALID,57.5044,VALID,0,VALID,26.4341,VALID,168,VALID,3.83594,
2012-08-14, 00:03:04,VALID,1001.37,VALID,0,VALID,57.6418,VALID,0,VALID,26.4341,VALID,165,VALID,3.31016,
2012-08-14, 00:04:04,VALID,1001.33,VALID,0,VALID,58.0996,VALID,0,VALID,26.315,VALID,153,VALID,2.46055,
2012-08-14, 00:05:04,VALID,1001.32,VALID,0,VALID,57.6418,VALID,0,VALID,26.2974,VALID,162,VALID,6.20039,
2012-08-14, 00:06:04,VALID,1001.34,VALID,0,VALID,57.4968,VALID,0.104696,VALID,26.354,VALID,180,VALID,4.91953,
2012-08-14, 00:07:04,VALID,1001.34,VALID,0,VALID,57.3519,VALID,0,VALID,26.4126,VALID,170,VALID,4.08945,
2012-08-14, 00:08:04,VALID,1001.4,VALID,0,VALID,57.4816,VALID,0.104696,VALID,26.3931,VALID,176,VALID,3.14531,
2012-08-14, 00:09:04,VALID,1001.32,VALID,0,VALID,57.329,VALID,0,VALID,26.4321,VALID,161,VALID,3.22539,
2012-08-14, 00:10:04,VALID,1001.36,VALID,0,VALID,59.8925,VALID,0,VALID,26.2759,VALID,115,VALID,1.56914,
2012-08-14, 00:11:04,VALID,1001.35,VALID,0,VALID,61.1056,VALID,0,VALID,26.0221,VALID,150,VALID,0.864062,
2012-08-14, 00:12:04,VALID,1001.35,VALID,0,VALID,60.0833,VALID,0.104696,VALID,25.8659,VALID,155,VALID,1.39766,
2012-08-14, 00:13:04,VALID,1001.36,VALID,0,VALID,59.9841,VALID,0,VALID,25.8659,VALID,156,VALID,1.70977,
2012-08-14, 00:14:04,VALID,1001.35,VALID,0,VALID,59.389,VALID,0.104696,VALID,25.8639,VALID,171,VALID,2.03789,
2012-08-14, 00:15:04,VALID,1001.34,VALID,0,VALID,58.9693,VALID,0,VALID,25.9635,VALID,162,VALID,2.29688,
2012-08-14, 00:16:04,VALID,1001.31,VALID,0,VALID,58.7481,VALID,0,VALID,25.983,VALID,172,VALID,2.34922,
2012-08-14, 00:17:04,VALID,1001.28,VALID,0,VALID,58.771,VALID,0,VALID,25.9811,VALID,170,VALID,2.81367,
2012-08-14, 00:18:04,VALID,1001.26,VALID,0,VALID,58.565,VALID,0,VALID,26.0416,VALID,173,VALID,2.70937,
2012-08-14, 00:19:04,VALID,1001.27,VALID,0,VALID,58.6031,VALID,0,VALID,26.0416,VALID,155,VALID,2.27344,
2012-08-14, 00:20:04,VALID,1001.23,VALID,0,VALID,58.359,VALID,0.104696,VALID,26.0416,VALID,168,VALID,3.37148,
2012-08-14, 00:21:04,VALID,1001.24,VALID,0,VALID,57.9927,VALID,0,VALID,26.1217,VALID,169,VALID,3.28711,
2012-08-14, 00:22:04,VALID,1001.28,VALID,0,VALID,57.4816,VALID,0,VALID,26.2584,VALID,176,VALID,4.00508,
2012-08-14, 00:23:04,VALID,1001.22,VALID,0,VALID,57.1993,VALID,0,VALID,26.2779,VALID,168,VALID,4.1082,
2012-08-14, 00:24:04,VALID,1001.25,VALID,0,VALID,57.7257,VALID,0,VALID,26.1803,VALID,160,VALID,3.25742,
2012-08-14, 00:25:04,VALID,1001.26,VALID,0,VALID,57.8096,VALID,0,VALID,26.1803,VALID,180,VALID,3.18594,
2012-08-14, 00:26:04,VALID,1001.24,VALID,0,VALID,57.2603,VALID,0,VALID,26.2584,VALID,176,VALID,3.84336,
2012-08-14, 00:27:04,VALID,1001.24,VALID,0,VALID,57.3671,VALID,0,VALID,26.2759,VALID,166,VALID,3.35703,
2012-08-14, 00:28:04,VALID,1001.26,VALID,0,VALID,57.3747,VALID,0,VALID,26.317,VALID,171,VALID,4.46133,
2012-08-14, 00:29:04,VALID,1001.26,VALID,0,VALID,57.2298,VALID,0,VALID,26.2954,VALID,168,VALID,3.73633,
2012-08-14, 00:30:04,VALID,1001.24,VALID,0,VALID,57.2069,VALID,0,VALID,26.2954,VALID,159,VALID,3.26953,
2012-08-14, 00:31:04,VALID,1001.25,VALID,0,VALID,57.0924,VALID,0,VALID,26.2564,VALID,150,VALID,3.17422,
2012-08-14, 00:32:04,VALID,1001.2,VALID,0,VALID,57.1153,VALID,0,VALID,26.2974,VALID,159,VALID,2.91641,
2012-08-14, 00:33:04,VALID,1001.24,VALID,0,VALID,57.535,VALID,0,VALID,26.2193,VALID,166,VALID,3.37305,
2012-08-14, 00:34:04,VALID,1001.22,VALID,0,VALID,57.3671,VALID,0,VALID,26.2974,VALID,167,VALID,4.35234,
2012-08-14, 00:35:04,VALID,1001.18,VALID,0,VALID,57.4739,VALID,0,VALID,26.2389,VALID,168,VALID,3.13594,
2012-08-14, 00:36:04,VALID,1001.24,VALID,0,VALID,57.2221,VALID,0,VALID,26.2584,VALID,172,VALID,3.85586,
2012-08-14, 00:37:04,VALID,1001.22,VALID,0,VALID,57.184,VALID,0,VALID,26.2759,VALID,179,VALID,2.9582,
2012-08-14, 00:38:04,VALID,1001.24,VALID,0,VALID,57.0238,VALID,0,VALID,26.2759,VALID,177,VALID,4.73438,
2012-08-14, 00:39:04,VALID,1001.25,VALID,0,VALID,56.9399,VALID,0,VALID,26.3365,VALID,166,VALID,4.02031,
2012-08-14, 00:40:04,VALID,1001.24,VALID,0,VALID,56.5813,VALID,0,VALID,26.356,VALID,173,VALID,4.36719,
2012-08-14, 00:41:04,VALID,1001.23,VALID,0,VALID,56.4897,VALID,0,VALID,26.3931,VALID,146,VALID,5.41289,
2012-08-14, 00:42:04,VALID,1001.26,VALID,0,VALID,57.0314,VALID,0,VALID,26.3756,VALID,153,VALID,3.72813,
2012-08-14, 00:43:04,VALID,1001.26,VALID,0,VALID,56.9627,VALID,0,VALID,26.317,VALID,173,VALID,2.9875,
2012-08-14, 00:44:04,VALID,1001.22,VALID,0,VALID,57.039,VALID,0,VALID,26.2954,VALID,152,VALID,3.30039,
2012-08-14, 00:45:04,VALID,1001.25,VALID,0,VALID,57.3519,VALID,0,VALID,26.2173,VALID,168,VALID,2.52852,
2012-08-14, 00:46:04,VALID,1001.19,VALID,0,VALID,57.1382,VALID,0,VALID,26.2193,VALID,165,VALID,5.23867,
2012-08-14, 00:47:04,VALID,1001.23,VALID,0,VALID,57.1764,VALID,0,VALID,26.2974,VALID,174,VALID,3.41953,
2012-08-14, 00:48:04,VALID,1001.2,VALID,0,VALID,57.0848,VALID,0,VALID,26.2954,VALID,172,VALID,4.01289,
2012-08-14, 00:49:04,VALID,1001.16,VALID,0,VALID,57.2145,VALID,0,VALID,26.2974,VALID,166,VALID,4.1418,
2012-08-14, 00:50:04,VALID,1001.21,VALID,0,VALID,57.4205,VALID,0,VALID,26.2759,VALID,172,VALID,3.4293,
2012-08-14, 00:51:04,VALID,1001.18,VALID,0,VALID,57.1459,VALID,0,VALID,26.2974,VALID,177,VALID,5.94805,
2012-08-14, 00:52:04,VALID,1001.2,VALID,0,VALID,57.3137,VALID,0,VALID,26.317,VALID,174,VALID,4.00938,
2012-08-14, 00:53:04,VALID,1001.18,VALID,0,VALID,57.3213,VALID,0,VALID,26.2759,VALID,180,VALID,3.4918,
2012-08-14, 00:54:04,VALID,1001.21,VALID,0,VALID,57.2908,VALID,0,VALID,26.2954,VALID,175,VALID,3.71289,
2012-08-14, 00:55:04,VALID,1001.21,VALID,0,VALID,57.451,VALID,0,VALID,26.2974,VALID,161,VALID,3.1625,
2012-08-14, 00:56:04,VALID,1001.23,VALID,0,VALID,57.6036,VALID,0,VALID,26.2389,VALID,172,VALID,4.11523,
2012-08-14, 00:57:04,VALID,1001.2,VALID,0,VALID,57.4892,VALID,0,VALID,26.2584,VALID,171,VALID,4.43437,
2012-08-14, 00:58:04,VALID,1001.21,VALID,0,VALID,57.5426,VALID,0,VALID,26.2564,VALID,186,VALID,2.23867,
2012-08-14, 00:59:04,VALID,1001.22,VALID,0,VALID,57.8859,VALID,0,VALID,26.2779,VALID,173,VALID,3.14922,
2012-08-14, 01:00:04,VALID,1001.23,VALID,0,VALID,57.8173,VALID,0,VALID,26.2369,VALID,167,VALID,2.875,
2012-08-14, 01:01:04,VALID,1001.19,VALID,0,VALID,57.6113,VALID,0,VALID,26.2193,VALID,162,VALID,2.68047,
2012-08-14, 01:02:04,VALID,1001.21,VALID,0,VALID,57.9241,VALID,0,VALID,26.1588,VALID,192,VALID,2.65117,
2012-08-14, 01:03:04,VALID,1001.2,VALID,0,VALID,57.9546,VALID,0,VALID,26.1588,VALID,177,VALID,3.95664,
2012-08-14, 01:04:04,VALID,1001.17,VALID,0,VALID,58.1224,VALID,0,VALID,26.1588,VALID,173,VALID,3.07188,
2012-08-14, 01:05:04,VALID,1001.18,VALID,0,VALID,57.7333,VALID,0,VALID,26.1783,VALID,174,VALID,3.12852,
2012-08-14, 01:06:04,VALID,1001.09,VALID,0,VALID,57.0314,VALID,0,VALID,26.2759,VALID,176,VALID,4.50977,
2012-08-14, 01:07:04,VALID,1001.06,VALID,0,VALID,56.7491,VALID,0,VALID,26.3736,VALID,175,VALID,5.60664,
2012-08-14, 01:08:04,VALID,1001.09,VALID,0,VALID,56.6652,VALID,0,VALID,26.4732,VALID,176,VALID,5.30156,
2012-08-14, 01:09:04,VALID,1001.09,VALID,0,VALID,56.4058,VALID,0,VALID,26.4537,VALID,167,VALID,5.04297,
2012-08-14, 01:10:04,VALID,1001.15,VALID,0,VALID,56.7873,VALID,0,VALID,26.4321,VALID,165,VALID,4.39297,
2012-08-14, 01:11:04,VALID,1001.14,VALID,0,VALID,56.5507,VALID,0,VALID,26.4341,VALID,161,VALID,3.6793,
2012-08-14, 01:12:04,VALID,1001.1,VALID,0,VALID,56.6804,VALID,0,VALID,26.3756,VALID,161,VALID,4.32422,
2012-08-14, 01:13:04,VALID,1001.09,VALID,0,VALID,56.9093,VALID,0,VALID,26.3756,VALID,160,VALID,3.13477,
2012-08-14, 01:14:04,VALID,1001.11,VALID,0,VALID,56.7567,VALID,0,VALID,26.3756,VALID,173,VALID,3.95391,
2012-08-14, 01:15:04,VALID,1001.1,VALID,0,VALID,56.7873,VALID,0,VALID,26.3756,VALID,167,VALID,4.10352,
2012-08-14, 01:16:04,VALID,1001.07,VALID,0,VALID,57.3366,VALID,0,VALID,26.2779,VALID,171,VALID,3.12148,
2012-08-14, 01:17:04,VALID,1001.05,VALID,0,VALID,57.5884,VALID,0,VALID,26.1803,VALID,171,VALID,3.10938,
2012-08-14, 01:18:04,VALID,1001.06,VALID,0,VALID,57.7486,VALID,0,VALID,26.1197,VALID,171,VALID,3.6832,
2012-08-14, 01:19:04,VALID,1000.95,VALID,0,VALID,57.6876,VALID,0,VALID,26.2389,VALID,155,VALID,6.4918,
2012-08-14, 01:20:04,VALID,1000.91,VALID,0,VALID,57.3976,VALID,0,VALID,26.2779,VALID,166,VALID,5.46211,
2012-08-14, 01:21:04,VALID,1000.93,VALID,0,VALID,57.2298,VALID,0,VALID,26.356,VALID,171,VALID,4.89453,
2012-08-14, 01:22:04,VALID,1000.9,VALID,0,VALID,57.0696,VALID,0,VALID,26.317,VALID,172,VALID,4.6082,
2012-08-14, 01:23:04,VALID,1000.93,VALID,0,VALID,57.1993,VALID,0,VALID,26.3345,VALID,172,VALID,4.60117,
2012-08-14, 01:24:04,VALID,1000.94,VALID,0,VALID,57.5655,VALID,0,VALID,26.317,VALID,170,VALID,4.18477,
2012-08-14, 01:25:04,VALID,1000.85,VALID,0,VALID,57.4434,VALID,0,VALID,26.2974,VALID,170,VALID,5.13711,
2012-08-14, 01:26:04,VALID,1000.83,VALID,0,VALID,57.6036,VALID,0,VALID,26.2564,VALID,164,VALID,5.20508,
2012-08-14, 01:27:04,VALID,1000.83,VALID,0,VALID,57.5121,VALID,0,VALID,26.2974,VALID,170,VALID,4.5457,
2012-08-14, 01:28:04,VALID,1000.79,VALID,0,VALID,57.5731,VALID,0,VALID,26.317,VALID,164,VALID,4.83242,
2012-08-14, 01:29:04,VALID,1000.81,VALID,0,VALID,57.5044,VALID,0,VALID,26.2974,VALID,168,VALID,4.10078,
2012-08-14, 01:30:04,VALID,1000.81,VALID,0,VALID,57.2374,VALID,0,VALID,26.2779,VALID,173,VALID,4.93984,
2012-08-14, 01:31:04,VALID,1000.82,VALID,0,VALID,57.2221,VALID,0,VALID,26.2974,VALID,170,VALID,4.96797,
2012-08-14, 01:32:04,VALID,1000.82,VALID,0,VALID,57.0162,VALID,0,VALID,26.3365,VALID,158,VALID,5.13594,
2012-08-14, 01:33:04,VALID,1000.75,VALID,0,VALID,57.0696,VALID,0,VALID,26.317,VALID,169,VALID,3.59453,
2012-08-14, 01:34:04,VALID,1000.78,VALID,0,VALID,56.772,VALID,0,VALID,26.315,VALID,163,VALID,4.76719,
2012-08-14, 01:35:04,VALID,1000.78,VALID,0,VALID,56.6576,VALID,0,VALID,26.3345,VALID,165,VALID,4.45352,
2012-08-14, 01:36:04,VALID,1000.73,VALID,0,VALID,56.6652,VALID,0,VALID,26.356,VALID,161,VALID,4.84688,
2012-08-14, 01:37:04,VALID,1000.78,VALID,0,VALID,56.5507,VALID,0,VALID,26.3345,VALID,165,VALID,5.07305,
2012-08-14, 01:38:04,VALID,1000.8,VALID,0,VALID,56.566,VALID,0,VALID,26.3756,VALID,169,VALID,5.0543,
2012-08-14, 01:39:04,VALID,1000.75,VALID,0,VALID,56.2761,VALID,0,VALID,26.3931,VALID,172,VALID,7.3875,
2012-08-14, 01:40:04,VALID,1000.76,VALID,0,VALID,55.8793,VALID,0,VALID,26.5123,VALID,174,VALID,5.51094,
2012-08-14, 01:41:04,VALID,1000.74,VALID,0,VALID,56.2074,VALID,0,VALID,26.4907,VALID,167,VALID,4.09141,
2012-08-14, 01:42:04,VALID,1000.69,VALID,0,VALID,56.5584,VALID,0,VALID,26.3931,VALID,171,VALID,3.76406,
2012-08-14, 01:43:04,VALID,1000.65,VALID,0,VALID,56.6118,VALID,0,VALID,26.3736,VALID,170,VALID,4.35977,
2012-08-14, 01:44:04,VALID,1000.55,VALID,0,VALID,56.1387,VALID,0,VALID,26.4321,VALID,184,VALID,7.02227,
2012-08-14, 01:45:04,VALID,1000.58,VALID,0,VALID,56.3524,VALID,0,VALID,26.4907,VALID,164,VALID,4.3875,
2012-08-14, 01:46:04,VALID,1000.54,VALID,0,VALID,56.3524,VALID,0,VALID,26.4341,VALID,172,VALID,4.92344,
2012-08-14, 01:47:04,VALID,1000.52,VALID,0,VALID,56.215,VALID,0,VALID,26.3931,VALID,182,VALID,5.10781,
2012-08-14, 01:48:04,VALID,1000.5,VALID,0,VALID,56.4973,VALID,0,VALID,26.4341,VALID,168,VALID,5.10234,
2012-08-14, 01:49:04,VALID,1000.5,VALID,0,VALID,56.4287,VALID,0,VALID,26.4341,VALID,174,VALID,5.43008,
2012-08-14, 01:50:04,VALID,1000.54,VALID,0,VALID,56.3905,VALID,0,VALID,26.4126,VALID,165,VALID,4.62109,
2012-08-14, 01:51:04,VALID,1000.52,VALID,0,VALID,56.3829,VALID,0,VALID,26.3951,VALID,175,VALID,3.94141,
2012-08-14, 01:52:04,VALID,1000.53,VALID,0,VALID,56.4516,VALID,0,VALID,26.3736,VALID,172,VALID,4.25039,
2012-08-14, 01:53:04,VALID,1000.49,VALID,0,VALID,56.3829,VALID,0,VALID,26.3931,VALID,168,VALID,4.94219,
2012-08-14, 01:54:04,VALID,1000.5,VALID,0,VALID,56.1922,VALID,0,VALID,26.4341,VALID,175,VALID,4.98594,
2012-08-14, 01:55:04,VALID,1000.49,VALID,0,VALID,56.154,VALID,0,VALID,26.4321,VALID,169,VALID,5.33203,
2012-08-14, 01:56:04,VALID,1000.46,VALID,0,VALID,56.1082,VALID,0,VALID,26.4126,VALID,176,VALID,4.69414,
2012-08-14, 01:57:04,VALID,1000.4,VALID,0,VALID,55.9862,VALID,0,VALID,26.4517,VALID,178,VALID,5.93125,
2012-08-14, 01:58:04,VALID,1000.39,VALID,0,VALID,55.9022,VALID,0,VALID,26.4907,VALID,170,VALID,7.28711,
2012-08-14, 01:59:04,VALID,1000.35,VALID,0,VALID,56.0243,VALID,0,VALID,26.4927,VALID,179,VALID,6.54023,
2012-08-14, 02:00:04,VALID,1000.38,VALID,0,VALID,56.566,VALID,0,VALID,26.4321,VALID,186,VALID,3.85469,
2012-08-14, 02:01:04,VALID,1000.37,VALID,0,VALID,56.6881,VALID,0,VALID,26.356,VALID,179,VALID,5.68477,
2012-08-14, 02:02:04,VALID,1000.36,VALID,0,VALID,56.627,VALID,0,VALID,26.356,VALID,178,VALID,5.64375,
2012-08-14, 02:03:04,VALID,1000.36,VALID,0,VALID,56.7339,VALID,0,VALID,26.354,VALID,178,VALID,4.56563,
2012-08-14, 02:04:04,VALID,1000.29,VALID,0,VALID,56.7873,VALID,0,VALID,26.356,VALID,179,VALID,4.64375,
2012-08-14, 02:05:04,VALID,1000.28,VALID,0,VALID,56.9856,VALID,0,VALID,26.2954,VALID,169,VALID,4.65703,
2012-08-14, 02:06:04,VALID,1000.23,VALID,0,VALID,57.2145,VALID,0,VALID,26.2564,VALID,165,VALID,4.25,
2012-08-14, 02:07:04,VALID,1000.24,VALID,0,VALID,57.245,VALID,0,VALID,26.2369,VALID,165,VALID,4.5707,
2012-08-14, 02:08:04,VALID,1000.28,VALID,0,VALID,57.5502,VALID,0,VALID,26.1978,VALID,171,VALID,4.59688,
2012-08-14, 02:09:04,VALID,1000.29,VALID,0,VALID,57.5884,VALID,0.104696,VALID,26.1783,VALID,178,VALID,4.3457,
2012-08-14, 02:10:04,VALID,1000.27,VALID,0,VALID,57.5121,VALID,0,VALID,26.1783,VALID,171,VALID,4.11367,
2012-08-14, 02:11:04,VALID,1000.29,VALID,0,VALID,57.5807,VALID,0,VALID,26.1588,VALID,172,VALID,4.04844,
2012-08-14, 02:12:04,VALID,1000.29,VALID,0,VALID,57.8401,VALID,0,VALID,26.0982,VALID,164,VALID,4.35781,
2012-08-14, 02:13:04,VALID,1000.34,VALID,0,VALID,58.0309,VALID,0,VALID,26.0807,VALID,168,VALID,4.12383,
2012-08-14, 02:14:04,VALID,1000.29,VALID,0,VALID,57.6036,VALID,0,VALID,26.1197,VALID,170,VALID,6.04648,
2012-08-14, 02:15:04,VALID,1000.3,VALID,0,VALID,57.6342,VALID,0,VALID,26.1783,VALID,165,VALID,3.95586,
2012-08-14, 02:16:04,VALID,1000.3,VALID,0,VALID,57.8707,VALID,0.104696,VALID,26.0982,VALID,162,VALID,3.12773,
2012-08-14, 02:17:04,VALID,1000.34,VALID,0,VALID,58.2903,VALID,0.104696,VALID,26.0201,VALID,166,VALID,3.41055,
2012-08-14, 02:18:04,VALID,1000.27,VALID,0,VALID,58.2903,VALID,0.104696,VALID,26.0221,VALID,162,VALID,4.43945,
2012-08-14, 02:19:04,VALID,1000.28,VALID,0,VALID,58.0462,VALID,0.104696,VALID,26.0592,VALID,166,VALID,4.54727,
2012-08-14, 02:20:04,VALID,1000.26,VALID,0,VALID,57.6952,VALID,0,VALID,26.0982,VALID,170,VALID,4.59844,
2012-08-14, 02:21:04,VALID,1000.2,VALID,0,VALID,57.7944,VALID,0,VALID,26.1002,VALID,164,VALID,4.36367,
2012-08-14, 02:22:04,VALID,1000.24,VALID,0,VALID,57.3671,VALID,0,VALID,26.1588,VALID,165,VALID,4.82891,
2012-08-14, 02:23:04,VALID,1000.25,VALID,0,VALID,57.6189,VALID,0,VALID,26.1392,VALID,165,VALID,4.17656,
2012-08-14, 02:24:04,VALID,1000.2,VALID,0,VALID,57.863,VALID,0,VALID,26.0807,VALID,166,VALID,3.8582,
2012-08-14, 02:25:04,VALID,1000.23,VALID,0,VALID,57.9699,VALID,0,VALID,26.0826,VALID,164,VALID,4.73711,
2012-08-14, 02:26:04,VALID,1000.24,VALID,0,VALID,57.9088,VALID,0,VALID,26.1022,VALID,163,VALID,4.61875,
2012-08-14, 02:27:04,VALID,1000.18,VALID,0,VALID,57.3366,VALID,0,VALID,26.1217,VALID,155,VALID,4.52266,
2012-08-14, 02:28:04,VALID,1000.17,VALID,0,VALID,57.0619,VALID,0,VALID,26.1783,VALID,149,VALID,5.91836,
2012-08-14, 02:29:04,VALID,1000.18,VALID,0,VALID,56.8483,VALID,0,VALID,26.2779,VALID,163,VALID,6.38672,
2012-08-14, 02:30:04,VALID,1000.19,VALID,0,VALID,57.0162,VALID,0,VALID,26.2564,VALID,171,VALID,4.46328,
2012-08-14, 02:31:04,VALID,1000.17,VALID,0,VALID,57.1459,VALID,0,VALID,26.2389,VALID,176,VALID,3.78672,
2012-08-14, 02:32:04,VALID,1000.19,VALID,0,VALID,57.4282,VALID,0,VALID,26.1978,VALID,174,VALID,3.8332,
2012-08-14, 02:33:04,VALID,1000.12,VALID,0,VALID,57.5807,VALID,0,VALID,26.1197,VALID,176,VALID,4.00078,
2012-08-14, 02:34:04,VALID,1000.09,VALID,0,VALID,57.4282,VALID,0,VALID,26.1002,VALID,169,VALID,4.59062,
2012-08-14, 02:35:04,VALID,1000.04,VALID,0,VALID,57.3213,VALID,0,VALID,26.1217,VALID,152,VALID,4.54844,
2012-08-14, 02:36:04,VALID,999.998,VALID,0,VALID,56.9017,VALID,0,VALID,26.1217,VALID,168,VALID,5.99492,
2012-08-14, 02:37:04,VALID,1000.02,VALID,0,VALID,56.9322,VALID,0,VALID,26.1588,VALID,171,VALID,4.42656,
2012-08-14, 02:38:04,VALID,999.989,VALID,0,VALID,57.0619,VALID,0,VALID,26.1607,VALID,167,VALID,5.06797,
2012-08-14, 02:39:04,VALID,999.952,VALID,0,VALID,57.2832,VALID,0,VALID,26.1412,VALID,168,VALID,4.53438,
2012-08-14, 02:40:04,VALID,999.963,VALID,0,VALID,57.451,VALID,0,VALID,26.1002,VALID,171,VALID,4.64922,
2012-08-14, 02:41:04,VALID,999.94,VALID,0,VALID,57.0009,VALID,0,VALID,26.1392,VALID,170,VALID,5.02227,
2012-08-14, 02:42:04,VALID,999.959,VALID,0,VALID,57.329,VALID,0,VALID,26.1412,VALID,168,VALID,3.7918,
2012-08-14, 02:43:04,VALID,999.924,VALID,0,VALID,57.1535,VALID,0,VALID,26.0807,VALID,175,VALID,4.94648,
2012-08-14, 02:44:04,VALID,999.931,VALID,0,VALID,57.4739,VALID,0,VALID,26.0436,VALID,166,VALID,3.73906,
2012-08-14, 02:45:04,VALID,999.958,VALID,0,VALID,57.4816,VALID,0,VALID,26.0026,VALID,183,VALID,4.71602,
2012-08-14, 02:46:04,VALID,999.915,VALID,0,VALID,57.3824,VALID,0,VALID,26.0241,VALID,174,VALID,4.02422,
2012-08-14, 02:47:04,VALID,999.92,VALID,0,VALID,57.1306,VALID,0,VALID,26.0807,VALID,179,VALID,3.71875,
2012-08-14, 02:48:04,VALID,999.904,VALID,0,VALID,57.0314,VALID,0,VALID,26.1197,VALID,172,VALID,3.60195,
2012-08-14, 02:49:04,VALID,999.866,VALID,0,VALID,57.0009,VALID,0,VALID,26.1002,VALID,175,VALID,3.74844,
2012-08-14, 02:50:04,VALID,999.888,VALID,0,VALID,57.184,VALID,0,VALID,26.0611,VALID,183,VALID,3.07422,
2012-08-14, 02:51:04,VALID,999.885,VALID,0,VALID,57.4282,VALID,0,VALID,26.0826,VALID,184,VALID,3.65586,
2012-08-14, 02:52:04,VALID,999.888,VALID,0,VALID,57.245,VALID,0,VALID,26.0611,VALID,179,VALID,3.41797,
2012-08-14, 02:53:04,VALID,999.849,VALID,0,VALID,57.1993,VALID,0,VALID,26.0807,VALID,185,VALID,4.02383,
2012-08-14, 02:54:04,VALID,999.87,VALID,0,VALID,57.1001,VALID,0,VALID,26.0807,VALID,176,VALID,3.51406,
2012-08-14, 02:55:04,VALID,999.901,VALID,0,VALID,57.2527,VALID,0,VALID,26.1022,VALID,179,VALID,3.10195,
2012-08-14, 02:56:04,VALID,999.86,VALID,0,VALID,57.4129,VALID,0,VALID,26.0807,VALID,171,VALID,3.21406,
2012-08-14, 02:57:04,VALID,999.859,VALID,0,VALID,57.123,VALID,0,VALID,26.0807,VALID,170,VALID,3.53906,
2012-08-14, 02:58:04,VALID,999.795,VALID,0,VALID,57.0314,VALID,0,VALID,26.0631,VALID,160,VALID,4.59297,
2012-08-14, 02:59:04,VALID,999.853,VALID,0,VALID,57.4282,VALID,0,VALID,26.0416,VALID,172,VALID,2.81133,
2012-08-14, 03:00:04,VALID,999.851,VALID,0,VALID,57.0238,VALID,0,VALID,26.0611,VALID,170,VALID,4.7832,
2012-08-14, 03:01:04,VALID,999.834,VALID,0,VALID,57.1459,VALID,0,VALID,26.0826,VALID,174,VALID,4.00742,
2012-08-14, 03:02:04,VALID,999.812,VALID,0,VALID,57.5273,VALID,0,VALID,26.0221,VALID,167,VALID,3.2957,
2012-08-14, 03:03:04,VALID,999.807,VALID,0,VALID,57.7486,VALID,0,VALID,25.946,VALID,173,VALID,3.92969,
2012-08-14, 03:04:04,VALID,999.819,VALID,0,VALID,58.0309,VALID,0,VALID,25.8854,VALID,173,VALID,3.31094,
2012-08-14, 03:05:04,VALID,999.828,VALID,0,VALID,57.9851,VALID,0,VALID,25.8874,VALID,171,VALID,4.5207,
2012-08-14, 03:06:04,VALID,999.803,VALID,0,VALID,58.008,VALID,0,VALID,25.9264,VALID,169,VALID,4.33203,
2012-08-14, 03:07:04,VALID,999.816,VALID,0,VALID,57.9164,VALID,0,VALID,25.9264,VALID,175,VALID,3.76836,
2012-08-14, 03:08:04,VALID,999.781,VALID,0,VALID,57.863,VALID,0,VALID,25.985,VALID,172,VALID,3.63633,
2012-08-14, 03:09:04,VALID,999.765,VALID,0,VALID,58.0538,VALID,0,VALID,25.985,VALID,172,VALID,3.85352,
2012-08-14, 03:10:04,VALID,999.706,VALID,0,VALID,57.9164,VALID,0,VALID,25.9655,VALID,171,VALID,5.36523,
2012-08-14, 03:11:04,VALID,999.73,VALID,0,VALID,58.0004,VALID,0,VALID,25.9635,VALID,170,VALID,4.00508,
2012-08-14, 03:12:04,VALID,999.676,VALID,0,VALID,58.0996,VALID,0,VALID,25.9655,VALID,170,VALID,4.78867,
2012-08-14, 03:13:04,VALID,999.659,VALID,0,VALID,58.0614,VALID,0,VALID,26.0045,VALID,166,VALID,5.26641,
2012-08-14, 03:14:04,VALID,999.613,VALID,0,VALID,58.3208,VALID,0,VALID,25.9655,VALID,158,VALID,3.8125,
2012-08-14, 03:15:04,VALID,999.62,VALID,0,VALID,58.5879,VALID,0,VALID,25.9264,VALID,168,VALID,3.74414,
2012-08-14, 03:16:04,VALID,999.598,VALID,0,VALID,58.2064,VALID,0,VALID,25.9264,VALID,167,VALID,5.19883,
2012-08-14, 03:17:04,VALID,999.588,VALID,0,VALID,57.657,VALID,0,VALID,26.0436,VALID,160,VALID,5.58906,
2012-08-14, 03:18:04,VALID,999.598,VALID,0,VALID,58.1072,VALID,0,VALID,26.0436,VALID,164,VALID,3.72305,
2012-08-14, 03:19:04,VALID,999.607,VALID,0,VALID,58.0156,VALID,0,VALID,26.0045,VALID,163,VALID,5.09648,
2012-08-14, 03:20:04,VALID,999.577,VALID,0,VALID,57.947,VALID,0,VALID,26.0631,VALID,168,VALID,4.79961,
2012-08-14, 03:21:04,VALID,999.595,VALID,0,VALID,58.008,VALID,0,VALID,26.0826,VALID,168,VALID,4.80508,
2012-08-14, 03:22:04,VALID,999.602,VALID,0,VALID,57.9546,VALID,0,VALID,26.0611,VALID,165,VALID,4.31328,
2012-08-14, 03:23:04,VALID,999.599,VALID,0,VALID,58.1606,VALID,0,VALID,26.0631,VALID,161,VALID,3.89883,
2012-08-14, 03:24:04,VALID,999.571,VALID,0,VALID,58.42,VALID,0,VALID,25.985,VALID,166,VALID,4.225,
2012-08-14, 03:25:04,VALID,999.561,VALID,0,VALID,58.3971,VALID,0,VALID,25.9655,VALID,163,VALID,5.46406,
2012-08-14, 03:26:04,VALID,999.573,VALID,0,VALID,58.4658,VALID,0,VALID,25.944,VALID,156,VALID,4.64922,
2012-08-14, 03:27:04,VALID,999.583,VALID,0,VALID,58.3284,VALID,0,VALID,25.944,VALID,167,VALID,3.61914,
2012-08-14, 03:28:04,VALID,999.635,VALID,0,VALID,58.6336,VALID,0,VALID,25.946,VALID,168,VALID,3.64492,
2012-08-14, 03:29:04,VALID,999.622,VALID,0,VALID,58.6947,VALID,0,VALID,25.946,VALID,161,VALID,3.36172,
2012-08-14, 03:30:04,VALID,999.6,VALID,0,VALID,58.6642,VALID,0,VALID,25.946,VALID,159,VALID,4.96875,
2012-08-14, 03:31:04,VALID,999.592,VALID,0,VALID,58.5039,VALID,0,VALID,25.985,VALID,157,VALID,4.15703,
2012-08-14, 03:32:04,VALID,999.572,VALID,0,VALID,58.4429,VALID,0,VALID,25.985,VALID,164,VALID,4.80586,
2012-08-14, 03:33:04,VALID,999.618,VALID,0,VALID,58.5802,VALID,0,VALID,25.983,VALID,166,VALID,3.82461,
2012-08-14, 03:34:04,VALID,999.584,VALID,0,VALID,58.7633,VALID,0,VALID,25.946,VALID,167,VALID,3.10625,
2012-08-14, 03:35:04,VALID,999.595,VALID,0,VALID,59.1296,VALID,0,VALID,25.8874,VALID,161,VALID,2.55391,
2012-08-14, 03:36:04,VALID,999.594,VALID,0,VALID,59.2211,VALID,0,VALID,25.8483,VALID,164,VALID,3.01289,
2012-08-14, 03:37:04,VALID,999.57,VALID,0,VALID,59.1753,VALID,0,VALID,25.8093,VALID,162,VALID,3.12266,
2012-08-14, 03:38:04,VALID,999.559,VALID,0,VALID,58.5879,VALID,0,VALID,25.8874,VALID,166,VALID,4.66211,
2012-08-14, 03:39:04,VALID,999.525,VALID,0,VALID,58.2598,VALID,0,VALID,25.946,VALID,165,VALID,4.49805,
2012-08-14, 03:40:04,VALID,999.508,VALID,0,VALID,58.4353,VALID,0,VALID,25.985,VALID,153,VALID,4.00391,
2012-08-14, 03:41:04,VALID,999.519,VALID,0,VALID,58.6718,VALID,0,VALID,25.946,VALID,161,VALID,3.63047,
2012-08-14, 03:42:04,VALID,999.484,VALID,0,VALID,58.5726,VALID,0,VALID,25.8854,VALID,162,VALID,3.63398,
2012-08-14, 03:43:04,VALID,999.545,VALID,0,VALID,58.4658,VALID,0,VALID,25.946,VALID,177,VALID,4.50898,
2012-08-14, 03:44:04,VALID,999.516,VALID,0,VALID,58.2979,VALID,0,VALID,25.9635,VALID,175,VALID,3.67539,
2012-08-14, 03:45:04,VALID,999.553,VALID,0,VALID,58.275,VALID,0,VALID,25.983,VALID,169,VALID,4.16602,
2012-08-14, 03:46:04,VALID,999.585,VALID,0,VALID,58.4581,VALID,0,VALID,25.985,VALID,178,VALID,3.80625,